Regional Weather Roundup
Issued by NWS Jackson, KY

Home | Current Version | Previous Version | Text Only | Print | Product List | Glossary Off
Versions: 1 2 3 4 5 6 7 8 9 10 11 12 13 14 15 16 17 18 19 20 21 22 23 24 25 26 27

000
ASUS43 KJKL 051510
RWRJKL

EAST KENTUCKY HOURLY WEATHER ROUNDUP
NATIONAL WEATHER SERVICE JACKSON KY
1100 AM EDT THU MAY 05 2016

NOTE: "FAIR" INDICATES FEW OR NO CLOUDS BELOW 12,000 FEET WITH
NO SIGNIFICANT WEATHER AND/OR OBSTRUCTIONS TO VISIBILITY.

* THESE REPORTS ARE NOT UNDER NWS QUALITY CONTROL AND MAY NOT
  REPORT WEATHER SUCH AS PRECIPITATION AND FOG.

KYZ079-080-083-085-087-088-110-112-115-119-120-051600
...EASTERN KENTUCKY...

CITY           SKY/WX    TMP DP  RH WIND       PRES   REMARKS
JACKSON        PTSUNNY   48  40  73 VRB5      29.77R
LONDON         LGT RAIN  46  41  82 N6        29.79R
SOMERSET*      CLOUDY    45  41  87 N8        29.81R
MONTICELLO*    LGT RAIN  46  43  89 N20       29.82R
WILLIAMSBURG*  CLOUDY    46  46 100 CALM      29.79R
MIDDLESBORO*   CLOUDY    46  43  90 NE5       29.79S
HARLAN APT*    CLOUDY    45  37  76 W6        29.77S
HAZARD APT*    CLOUDY    48  43  81 NW5       29.78R
BLACK MTN*       N/A     36  36 100 NW2         N/A
PIKE CO APT*   CLOUDY    45  38  76 NW3       29.77R
BIG SANDY APT* CLOUDY    49  40  70 CALM      29.78R
MOREHEAD APT*  CLOUDY    46  39  76 N6        29.82R
$$

KYZ035-036-041-042-044-050-067-078-099-051600
...CENTRAL KENTUCKY...

CITY           SKY/WX    TMP DP  RH WIND       PRES   REMARKS
MT STERLING*   CLOUDY    46  41  81 N6        29.82R
FLEMING/MASON* CLOUDY    47  38  71 N8        29.82R
DANVILLE*      CLOUDY    45  39  81 N8        29.82S
RICHMOND*      CLOUDY    46  39  76 NW8       29.79S
LEXINGTON      CLOUDY    48  39  71 N10       29.82R
FRANKFORT      PTSUNNY   48  37  65 VRB6      29.82R
LOUISVILLE     LGT RAIN  48  40  73 N9        29.86R
LEBANON*       CLOUDY    46  41  81 N9        29.83R
BOWLING GREEN  CLOUDY    52  40  63 N10G20    29.86R
$$

KYZ091>093-OHZ055-061-077-WVZ005-015-034-035-042-051600
...SOUTHERN OHIO/WEST VIRGINIA...

CITY           SKY/WX    TMP DP  RH WIND       PRES   REMARKS
COVINGTON      PTSUNNY   49  37  63 N9        29.83R
COLUMBUS       CLOUDY    46  44  93 NW10      29.79S
DAYTON         CLOUDY    45  41  86 NW10      29.84S
WILMINGTON     CLOUDY    49  38  65 N9        29.81R
HUNTINGTON     CLOUDY    51  41  68 NE8       29.78R
CHARLESTON     CLOUDY    48  41  76 NW6       29.76S
PINEVILLE*     CLOUDY    46  36  69 MISG      29.79S
BECKLEY        CLOUDY    41  37  86 NW7       29.72R
$$

VAZ002-007-008-TNZ017-027-036-066-071-051600
...SOUTHWEST VIRGINIA/EAST TENNESSEE...

CITY           SKY/WX    TMP DP  RH WIND       PRES   REMARKS
WISE*          CLOUDY    43  34  70 W7        29.75R
BRISTOL        CLOUDY    49  36  61 NW7       29.75R
MORRISTOWN*    PTSUNNY   48  41  76 NW7       29.76S
SEVIERVILLE*   CLOUDY    50  43  76 W9        29.77S
KNOXVILLE      LGT RAIN  49  44  83 W10       29.79S
OAK RIDGE      CLOUDY    49  43  80 VRB3      29.80S
CROSSVILLE     CLOUDY    46  41  82 W7        29.79S
NASHVILLE      MOSUNNY   58  38  47 NW16      29.83S
$$

...KEY TO REMARKS...
VSB - VISIBILITY IN MILES
WCI - WIND CHILL INDEX
HX  - HEAT INDEX

$$




USA.gov is the U.S. government's official web portal to all federal, state and local government web resources and services.